EHI
0 0 0 0 0 0 0 0 0 0 0 0 0 0 0 0 0 0 0 0 0 0 0 0 0 0 0 0 0 0 0 0 0 0 0 0 0 0
0 0 0 0 0 0 0 0 0 0 0 0 0 0 0 0 0 0 0 0 0 0 0 0 0 0 0 0 0 0 0 0 0 0 0 0 0 0
0 0 0 0 0 0 0 0 0 0 0 0 0 0 0 0 0 0 0 0 0 0 0 0 0 0 0 0 0 0 0 0 0 0 0 0 0 0
0 0 0 0 0 0 0 0 0 0 0 0 0 0 0 0 0 0 0 0 0 0 0 0 0 0 0 0 0 0 0 0 0 0 0 0 0 0
0 0 0 0 0 0 0 0 0 0 0 0 0 0 0 0 0 0 0 0 0 0 0 0 0 0 0 0 0 0 0 0 0 0 0 0 0 0
0 0 0 0 0 0 0 0 0 0 0 0 0 0 0 0 0 0 0 0 0 0 0 0 0 0 0 0 0 0 0 0 0 0 0 0 0 0
0 0 0 0 0 0 0 0 0 0 0 0 0 0 0 0 0 0 0 0 0 0 0 0 0 0 0 0 0 0 0 0 0 0 0 0 0 0
0 0 0 0 0 0 0 0 0 0 0 0 0 0 0 0 0 0 0 0 0 0 0 0 0 0 0 0 0 0 0 0 0 0 0 0 0 0
0 0 0 0 0 0 0 0 0 0 0 0 0 0 0 0 0 0 0 0 0 0 0 0 0 0 0 0 0 0 0 0 0 0 0 0 0 0
0 0 0 0 0 0 0 0 0 0 0 0 0 0 0 0 0 0 0 0 0 0 0 0 0 0 0 0 0 0 0 0 0 0 0 0 0 0
0 0 0 0 0 0 0 0 0 0 0 0 0 0 0 0 0 0 0 0 0 0 0 0 0 0 0 0 0 0 0 0 0 0 0 0 0 0
0 0 0 0 0 0 0 0 0 0 0 0 0 0 0 0 0 0 0 0 0 0 0 0 0 0 0 0 0 0 0 0 0 0 0 0 0 0
0 0 0 0 0 0 0 0 0 0 0 0 0 0 0 0 0 0 0 0 0 0 0 0 0 0 0 0 0 0 0 0 0 0 0 0 0 0
0 0 0 0 0 0 0 0 0 0 0 0 0 0 0 0 0 0 0 0 0 0 0 0 0 0 0 0 0 0 0 0 0 0 0 0 0 0
0 0 0 0 0 0 0 0 0 0 0 0 0 0 0 0 0 0 0 0 0 0 0 0 0 0 0 0 0 0 0 0 0 0 0 0 0 0
0 0 0 0 0 0 0 0 0 0 0 0 0 0 0 0 0 0 0 0 0 0 0 0 0 0 0 0 0 0 0 0 0 0 0 0 0 0
0 0 0 0 0 0 0 0 0 0 0 0 0 0 0 0 0 0 0 0 0 0 0 0 0 0 0 0 0 0 0 0 0 0 0 0 0 0
0 0 0 0 0 0 0 0 0 0 0 0 0 0 0 0 0 0 0 0 0 0 0 0 0 0 0 0 0 0 0 0 0 0 0 0 0 0
0 0 0 0 0 0 0 0 0 0 0 0 0 0 0 0 0 0 0 0 0 0 0 0 0 0 0 0 0 0 0 0 0 0 0 0 0 0
0 0 0 0 0 0 0 0 0 0 0 0 0 0 0 0 0 0 0 0 0 0 0 0 0 0 0 0 0 0 0 0 0 0 0 0 0 0
0 0 0 0 0 0 0 0 0 0 0 0 0 0 0 0 0 0 0 0 0 0 0 0 0 0 0 0 0 0 0 0 0 0 0 0 0 0
0 0 0 0 0 0 0 0 0 0 0 0 0 0 0 0 0 0 0 0 0 0 0 0 0 0 0 0 0 0 0 0 0 0 0 0 0 0
0 0 0 0 0 0 0 0 0 0 0 0 0 0 0 0 0 0 0 0 0 0 0 0 0 0 0 0 0 0 0 0 0 0 0 0 0 0
Wind_Speed
7 7 5 4 4 3 3 4 4 4 4 4 3 3 2 3 4 5 5 6 6 6 6 5 5 4 4 4 3 3 4 5 5 5 5 5 4 5
6 7 6 5 4 4 4 4 4 4 5 3 3 3 3 3 5 5 5 6 7 7 6 6 6 5 5 4 4 4 4 5 5 5 6 6 5 5
7 7 8 6 5 5 4 4 4 4 5 4 3 3 3 4 3 3 4 4 5 7 7 7 7 6 6 5 4 4 4 4 5 5 6 6 6 5
7 7 7 5 6 5 5 6 5 5 5 5 4 3 4 4 4 4 3 3 4 6 8 8 7 7 7 6 5 5 4 5 5 5 5 5 6 6
8 8 7 6 6 5 5 5 5 5 4 5 4 3 3 3 3 3 3 3 3 4 6 7 8 7 7 7 7 6 6 5 6 5 5 5 5 6
7 7 7 7 8 7 6 6 5 5 5 5 4 4 3 3 3 4 3 3 3 2 4 4 6 7 8 8 7 7 7 7 7 7 6 6 5 6
7 6 6 7 8 7 6 6 6 6 5 5 5 4 4 4 5 4 4 2 3 3 2 3 3 3 4 6 7 8 8 8 8 8 7 7 7 7
7 6 6 6 7 8 8 8 8 7 7 6 6 7 6 5 4 4 3 3 3 3 3 3 3 3 3 4 6 8 9 9 9 9 8 8 8 7
5 5 5 4 5 5 6 6 7 8 8 7 7 7 6 6 6 5 5 4 4 3 2 3 3 4 3 4 7 8 8 9 9 9 8 8 8 8
5 5 5 4 4 5 5 5 5 5 6 5 6 6 6 5 7 6 5 3 1 2 2 3 3 3 3 3 6 7 8 9 8 8 8 8 8 8
5 4 4 4 5 6 5 5 5 4 5 6 6 6 6 6 5 4 4 4 3 3 2 2 2 2 2 3 4 6 7 8 8 8 8 8 7 6
4 4 6 5 5 6 5 5 6 5 3 3 3 4 3 3 5 5 5 5 3 2 3 3 2 1 2 2 2 3 4 6 7 7 7 7 7 4
3 3 3 5 6 6 6 5 6 4 3 3 3 2 2 2 2 2 2 3 4 3 3 2 2 2 2 2 2 2 3 3 3 4 6 7 7 5
3 3 3 5 5 5 5 4 4 3 2 3 3 2 2 2 2 2 1 1 1 3 3 3 3 3 3 3 3 2 2 2 3 3 3 5 6 7
2 3 3 4 4 3 4 4 3 2 2 3 3 2 2 2 2 1 1 1 0 0 1 2 2 3 3 4 3 2 2 2 3 3 3 3 4 4
2 2 2 2 2 2 2 2 1 2 2 2 2 1 1 2 2 2 2 1 1 1 1 0 1 3 3 3 3 3 3 3 2 3 3 3 3 4
1 1 0 0 0 0 0 1 1 1 1 1 1 2 1 2 2 1 2 1 2 2 1 1 1 1 2 3 3 4 3 3 2 2 2 3 3 4
1 0 0 1 1 1 1 1 1 1 0 1 1 1 2 2 1 1 1 2 2 2 2 1 0 0 1 1 3 3 3 2 2 2 2 3 4 3
1 0 0 1 1 1 1 1 1 1 0 1 1 1 1 1 1 1 1 1 1 2 1 1 1 1 2 3 2 2 2 2 1 2 2 3 4 4
1 0 1 1 1 1 1 1 1 1 0 0 0 0 1 1 1 1 1 1 1 1 1 1 1 2 3 3 2 2 2 2 2 2 3 2 3 4
1 1 1 1 1 1 1 1 1 1 1 0 0 0 0 1 1 1 1 1 1 1 1 1 1 1 1 0 1 1 1 1 2 2 2 2 2 2
1 1 1 1 1 1 1 1 1 1 0 0 1 1 1 1 1 1 1 1 1 1 1 1 1 0 0 1 2 2 2 1 2 3 4 4 2 3
1 1 1 1 1 1 1 1 1 1 1 1 1 1 1 1 1 1 1 1 1 1 1 1 1 0 0 1 1 1 2 2 1 2 2 3 4 6
Wind_Direction
227 228 228 230 223 223 223 212 207 236 247 241 230 218 217 211 212 206 207 214 209 209 210 209 208 206 205 207 213 226 230 226 225 228 235 236 246 233
227 228 229 228 223 220 222 226 223 223 243 241 245 249 231 234 222 213 209 208 211 211 211 208 206 202 205 208 211 220 230 233 232 236 239 239 245 244
230 231 232 230 225 221 220 221 226 222 242 258 255 253 228 225 228 220 205 201 208 212 212 208 205 204 202 202 207 216 225 239 243 241 242 242 244 251
230 232 234 232 232 227 223 225 226 222 224 243 243 235 233 220 221 214 209 209 208 211 213 209 209 211 207 205 205 210 220 231 239 242 247 246 247 250
229 231 229 227 233 232 229 228 229 229 223 229 239 238 229 215 215 210 203 205 212 212 213 215 216 215 212 212 211 211 214 220 230 240 244 244 249 257
233 230 225 224 229 230 231 230 228 225 222 221 231 234 225 213 200 199 210 207 219 215 216 219 215 213 214 215 214 215 217 221 227 232 235 236 238 249
237 229 229 235 238 233 235 227 221 219 217 221 223 231 218 202 205 196 210 215 230 205 201 219 215 218 218 217 218 222 224 225 226 229 233 238 237 243
242 235 235 236 245 247 250 245 234 221 217 222 228 227 222 213 206 199 198 202 231 197 189 224 206 223 232 226 223 226 228 228 229 232 234 238 238 240
248 240 238 242 245 240 248 251 246 244 235 227 227 232 218 205 198 205 208 218 232 198 188 230 209 231 238 235 227 224 230 233 232 231 232 235 239 242
248 243 239 237 239 240 234 235 234 237 239 236 231 237 227 210 204 209 205 213 242 207 190 234 219 232 243 233 229 227 230 232 232 231 233 235 237 237
253 249 247 237 255 254 238 234 238 240 243 245 245 246 236 224 206 184 186 192 224 225 192 202 217 240 237 234 235 229 230 230 234 237 238 233 231 230
254 249 251 253 255 256 238 226 231 237 228 237 247 254 233 204 202 203 199 201 210 224 196 180 204 205 249 235 224 228 235 241 238 236 237 235 232 224
252 253 250 259 255 260 260 240 237 237 217 217 219 212 194 178 189 198 208 208 215 228 190 172 197 208 220 249 253 232 221 230 233 235 234 234 234 227
256 257 257 262 261 264 263 261 250 240 213 208 209 212 195 189 185 177 172 198 230 231 211 205 215 214 217 241 249 232 229 228 227 232 232 237 235 235
272 280 291 279 273 267 272 263 246 215 210 208 211 219 204 185 165 153 134 126 86 295 232 234 223 222 224 232 238 238 253 240 219 224 228 222 224 220
287 295 305 316 304 305 298 268 238 223 213 211 204 207 191 176 180 183 192 192 202 287 340 284 240 218 229 234 228 243 240 226 217 227 235 234 226 219
290 324 320 279 312 320 311 319 293 241 224 199 188 191 186 181 191 195 197 200 214 230 261 333 348 268 240 221 226 233 238 243 236 240 242 254 243 231
309 302 296 289 287 295 306 323 327 288 221 200 195 192 194 191 194 198 198 194 201 210 221 225 197 348 318 290 236 227 231 244 252 246 233 250 261 250
354 288 266 277 293 300 301 307 312 301 243 192 195 198 188 186 185 201 206 200 202 203 212 206 198 196 224 259 270 223 222 237 257 270 251 248 262 264
23 324 296 285 292 302 315 328 322 316 287 212 195 188 182 195 201 203 213 217 211 206 218 214 209 214 223 236 257 287 238 216 225 258 273 280 277 280
344 338 328 315 315 320 324 324 302 289 305 269 236 234 204 190 204 217 213 221 231 222 226 249 258 261 207 156 250 284 309 272 255 248 249 273 290 286
353 345 340 332 318 314 308 298 291 289 287 263 247 241 237 211 200 207 200 204 235 247 262 286 319 318 210 209 237 269 297 327 327 314 286 246 232 240
349 342 333 327 324 315 303 301 300 289 273 253 245 237 227 227 222 210 200 198 209 235 262 281 330 349 237 207 225 250 277 300 322 341 315 303 290 280